Flag for U.S.A. Weather past 2 weeks in Antioch, California, U.S.A.

Now
75 °F

Sunny.


Feels Like: 78 °F
Forecast: 65 / 100 °F
Wind: 7 mph from North

Location: Buchanan Field

Current Time: Jul 31, 2014 at 9:35:06 PM

Latest Report: Jul 31, 2014 at 8:53 PM


Visibility: 10 mi

Pressure: 29.81 "Hg

Humidity: 50%

Dew point: 55 °F

Location of AntiochLocation

Historic Weather in Antioch — Graph

°F

Antioch temperature yesterday

Maximum temperature yesterday: 96 °F (at 3:53 PM)
Minimum temperature yesterday: 60 °F (at 5:53 AM)
Average temperature yesterday: 74 °F

Past Weeks' High & Low Weather Summary

 TemperatureHumidityPressure
High100 °F (Jul 25, 3:53 PM)87% (Jul 24, 5:53 AM)30.10 "Hg (Jul 24, 5:53 AM)
Low59 °F (Jul 28, 4:53 AM)5% (Jul 27, 4:53 PM)29.75 "Hg (Jul 25, 5:53 PM)
Average72 °F58%29.92 "Hg
* Reported Jul 16 7:53 PM — Jul 31 7:53 PM, Antioch, Weather by CustomWeather, © 2014

Note: Actual official high and low records may vary slightly from our data, if they occured in-between our weather recording intervals... More about our weather records

Advertising

Antioch weather history for previous 24 hours

 ConditionsComfort  
Time TempWeatherWind HumidityBarometerVisibility
7:53 PM
Jul 31
83 °FSunny.No wind36%29.80 "Hg10 mi
6:53 PM91 °FSunny.6 mph22%29.79 "Hg10 mi
5:53 PM94 °FSunny.14 mph20%29.80 "Hg10 mi
4:53 PM95 °FSunny.9 mph26%29.80 "Hg10 mi
3:53 PM95 °FSunny.13 mph25%29.82 "Hg10 mi
2:53 PM92 °FSunny.15 mph30%29.83 "Hg10 mi
1:53 PM87 °FSunny.13 mph33%29.86 "Hg10 mi
12:53 PM81 °FSunny.10 mph44%29.88 "Hg10 mi
11:53 AM77 °FSunny.13 mph50%29.90 "Hg10 mi
10:53 AM73 °FScattered clouds.13 mph57%29.91 "Hg10 mi
9:53 AM69 °FScattered clouds.16 mph66%29.91 "Hg10 mi
8:53 AM67 °FScattered clouds.9 mph68%29.91 "Hg10 mi
7:53 AM63 °FSunny.3 mph75%29.91 "Hg10 mi
6:53 AM60 °FPassing clouds.6 mph83%29.90 "Hg10 mi
5:53 AM59 °FClear.6 mph84%29.89 "Hg10 mi
4:53 AM59 °FClear.6 mph84%29.88 "Hg10 mi
3:53 AM61 °FClear.6 mph81%29.88 "Hg10 mi
2:53 AM60 °FClear.7 mph83%29.88 "Hg10 mi
1:53 AM62 °FClear.5 mph83%29.88 "Hg10 mi
12:53 AM62 °FClear.9 mph83%29.88 "Hg10 mi
11:53 PM
Jul 30
63 °FClear.6 mph81%29.88 "Hg10 mi
10:53 PM67 °FClear.6 mph68%29.89 "Hg10 mi
9:53 PM69 °FClear.7 mph66%29.89 "Hg10 mi
Weather by CustomWeather, © 2014

See weather overviewHow to use our weather pages